Estación municipal de Cànoves i Samalús (Vallès Oriental, P.N.del Montseny)

Consulta los datos en tiempo real de la estación municipal de Cànoves i Samalús





Hora UTC 18:55
Temperatura 25.0 ºC
Humedad 56.2 %
Presión 1021.3 hPa
Pluja 0.0 mm
Velocidad viento 3.9 km/h
Dirección viento NNW
Radiación solar 0.1 W/m²

Webcam

Datos diarios 2026-09-05



Hora UTC (invierno +1h; verano +2h)
Temperatura (ºC) Humedad (%) Presión (hPa) Velocidad viento (km/h) Precipitación (mm) Radiación solar (W/m²)
Hora UTC Aire Humedad Presión Vel. Dir. Vel. Max Dir. Intent. máx 5 min. Rad. Sol.
00:05 23.8 62.6 1019.7 2.7 WNW 2.7 WNW 0.0 0.1
00:10 23.7 62.3 1019.7 2.7 NNW 4.6 NNW 0.0 0.1
00:15 23.8 62.2 1019.7 2.2 NW 3.9 WNW 0.0 0.1
00:20 23.7 62.0 1019.6 3.8 NNW 5.3 NNW 0.0 0.1
00:25 23.6 61.9 1019.6 3.4 NW 5.3 WNW 0.0 0.1
00:30 23.6 61.6 1019.6 2.6 WNW 4.6 W 0.0 0.1
00:35 23.7 61.5 1019.7 2.7 NW 4.9 WNW 0.0 0.1
00:40 23.7 61.3 1019.7 1.5 WNW 3.5 WNW 0.0 0.1
00:45 23.6 61.2 1019.6 0.8 SSW 2.1 SSW 0.0 0.1
00:50 23.4 61.9 1019.6 0.0 NNE 0.0 S 0.0 0.1
00:55 23.2 62.5 1019.7 1.8 SSW 4.6 S 0.0 0.1
01:00 23.0 63.8 1019.7 1.6 S 3.2 SSW 0.0 0.1
01:05 22.9 64.3 1019.7 1.0 WNW 2.8 N 0.0 0.1
01:10 22.8 64.3 1019.6 0.7 WNW 2.5 NW 0.0 0.1
01:15 22.7 64.1 1019.6 0.0 W 1.1 W 0.0 0.1
01:20 22.5 65.0 1019.6 0.4 SE 3.2 SSE 0.0 0.1
01:25 22.3 66.9 1019.6 1.2 S 2.5 SW 0.0 0.1
01:30 22.0 67.0 1019.7 1.3 S 3.2 SSW 0.0 0.1
01:35 22.0 67.6 1019.6 0.8 SSE 2.1 SSE 0.0 0.1
01:40 21.9 67.7 1019.6 1.6 NW 6.0 ENE 0.0 0.1
01:45 22.0 66.9 1019.6 2.2 NW 4.9 NW 0.0 0.1
01:50 22.5 65.2 1019.6 1.6 WNW 3.5 WNW 0.0 0.1
01:55 22.7 64.4 1019.7 1.0 W 3.5 WSW 0.0 0.1
02:00 22.7 64.5 1019.7 0.9 NNE 4.9 NE 0.0 0.1
02:05 22.6 64.1 1019.7 2.1 NW 4.6 N 0.0 0.1
02:10 22.9 63.5 1019.7 3.2 NNW 5.6 NNW 0.0 0.1
02:15 22.9 63.3 1019.7 3.1 NNW 5.3 NNW 0.0 0.1
02:20 22.9 63.4 1019.7 4.1 NNW 6.0 N 0.0 0.1
02:25 23.0 63.0 1019.7 3.1 NNW 6.0 NNW 0.0 0.1
02:30 23.0 62.8 1019.7 2.9 NNW 4.6 NW 0.0 0.1
02:35 23.1 62.3 1019.7 2.4 NW 3.9 NW 0.0 0.1
02:40 23.2 61.7 1019.7 2.0 NNW 3.5 NW 0.0 0.1
02:45 23.2 61.6 1019.7 3.7 NW 7.1 NNW 0.0 0.1
02:50 23.3 61.0 1019.7 2.7 NW 5.3 N 0.0 0.1
02:55 23.3 60.7 1019.7 2.6 NW 7.4 WNW 0.0 0.1
03:00 23.3 60.6 1019.7 3.2 NW 6.4 NW 0.0 0.1
03:05 23.4 60.5 1019.7 1.7 NW 4.6 WNW 0.0 0.1
03:10 23.4 60.2 1019.7 2.3 NNW 6.0 NNW 0.0 0.1
03:15 23.5 59.8 1019.7 3.4 N 12.0 N 0.0 0.1
03:20 23.7 59.0 1019.7 4.1 N 10.9 NNE 0.0 0.1
03:25 23.9 58.8 1019.7 2.9 NW 5.6 NW 0.0 0.1
03:30 23.8 58.8 1019.7 1.6 NNW 4.9 NNW 0.0 0.1
03:35 23.8 59.2 1019.7 2.0 NW 5.3 N 0.0 0.1
03:40 23.8 59.6 1019.7 2.7 NW 9.2 N 0.0 0.1
03:45 23.8 59.6 1019.7 0.9 NW 3.2 NW 0.0 0.1
03:50 23.7 59.1 1019.8 1.4 N 3.5 NNE 0.0 0.1
03:55 23.7 58.9 1019.8 0.9 NNW 2.8 NE 0.0 0.1
04:00 23.8 58.9 1019.8 1.7 N 5.6 NNE 0.0 0.1
04:05 23.8 59.1 1019.8 2.6 NNW 6.7 NNE 0.0 0.1
04:10 23.8 59.0 1019.8 1.8 NNW 5.3 NNW 0.0 0.1
04:15 23.8 58.8 1019.8 2.9 NW 6.0 NNW 0.0 0.1
04:20 23.7 58.7 1019.8 0.6 NW 2.5 NW 0.0 0.1
04:25 23.6 59.0 1019.8 0.9 NW 2.5 NW 0.0 0.1
04:30 23.6 59.3 1019.8 1.1 NW 2.5 NW 0.0 0.1
04:35 23.4 59.3 1019.9 1.8 NW 4.9 NE 0.0 0.1
04:40 23.3 59.2 1019.9 2.9 NNW 7.1 N 0.0 0.1
04:45 23.4 58.4 1019.9 3.2 NW 6.7 NNW 0.0 0.1
04:50 23.6 58.1 1020.0 2.0 NNW 9.5 NW 0.0 0.1
04:55 23.6 58.0 1020.0 2.2 NNW 7.1 NE 0.0 0.1
05:00 23.9 56.6 1020.0 3.9 N 8.8 NW 0.0 0.3
05:05 24.1 55.7 1020.1 4.7 N 9.5 N 0.0 0.6
05:10 24.6 54.4 1020.1 5.4 N 11.3 N 0.0 1.3
05:15 24.5 54.2 1020.1 5.6 NNW 11.6 N 0.0 2.1
05:20 24.9 53.1 1020.2 7.2 NNW 17.6 NW 0.0 3.5
05:25 25.2 52.2 1020.2 4.7 N 11.3 NNW 0.0 5.5
05:30 25.1 52.8 1020.2 2.5 N 5.6 NNW 0.0 9.2
05:35 25.0 52.9 1020.2 5.4 NNW 14.5 0.0 14.0
05:40 25.2 52.0 1020.3 4.8 N 12.4 NNW 0.0 18.6
05:45 25.4 51.5 1020.3 4.8 N 10.6 N 0.0 23.6
05:50 25.4 51.6 1020.4 4.4 N 10.6 NNW 0.0 28.4
05:55 25.4 51.5 1020.4 5.4 N 10.9 NNE 0.0 33.2
06:00 25.6 51.0 1020.5 5.2 N 10.6 NNE 0.0 37.2
06:05 25.7 51.4 1020.5 4.2 N 9.2 NW 0.0 40.9
06:10 25.7 51.5 1020.5 4.4 N 9.2 NW 0.0 44.6
06:15 25.7 51.5 1020.5 4.6 N 9.5 NNW 0.0 47.9
06:20 25.9 51.3 1020.6 3.9 NNW 8.8 NNW 0.0 51.2
06:25 26.0 51.4 1020.6 3.4 N 7.1 NNW 0.0 54.1
06:30 26.1 51.5 1020.7 4.4 N 8.8 NNW 0.0 56.8
06:35 26.4 50.5 1020.8 4.7 N 8.8 NNE 0.0 62.5
06:40 26.7 49.9 1020.8 3.2 N 7.8 NNE 0.0 62.5
06:45 26.9 49.3 1020.8 4.3 N 8.5 NNW 0.0 64.8
06:50 27.1 48.9 1020.9 3.7 N 8.8 NNE 0.0 66.8
06:55 27.4 48.2 1021.0 3.7 NNE 7.8 NNE 0.0 69.0
07:00 27.5 48.1 1021.0 3.6 NNE 6.4 0.0 71.4
07:05 27.7 46.8 1021.0 2.7 NE 6.4 NNE 0.0 73.7
07:10 28.1 46.9 1021.1 0.4 NE 2.8 NE 0.0 75.8
07:15 28.2 45.9 1021.1 0.0 NNE 0.0 NNE 0.0 78.1
07:20 28.4 44.1 1021.1 0.3 WNW 2.1 WNW 0.0 80.5
07:25 28.6 45.3 1021.2 0.0 NNE 0.0 WSW 0.0 83.0
07:30 28.9 46.1 1021.2 1.1 ESE 6.0 ENE 0.0 85.8
07:35 29.4 45.2 1021.3 4.9 SE 7.4 ESE 0.0 100.8
07:40 30.0 43.4 1021.3 4.2 SSE 7.4 SE 0.0 146.4
07:45 30.2 43.3 1021.3 4.4 S 6.7 S 0.0 107.7
07:50 30.6 41.7 1021.3 5.1 SE 8.8 ESE 0.0 217.2
07:55 31.3 39.6 1021.4 5.5 ESE 11.3 E 0.0 291.7
08:00 31.7 36.1 1021.4 7.4 ESE 12.7 E 0.0 310.8
08:05 32.0 35.3 1021.4 6.3 ESE 12.4 ESE 0.0 393.0
08:10 32.3 35.1 1021.4 5.2 ESE 10.9 E 0.0 410.0
08:15 32.4 34.4 1021.4 9.0 ESE 17.6 ESE 0.0 426.5
08:20 32.4 34.0 1021.5 9.2 ESE 19.4 ESE 0.0 440.9
08:25 32.5 33.9 1021.6 8.5 ESE 14.1 E 0.0 455.6
08:30 32.8 33.5 1021.6 5.6 E 12.7 E 0.0 440.1
08:35 33.1 33.0 1021.6 7.2 ESE 13.8 E 0.0 481.2
08:40 33.2 32.9 1021.7 8.1 ESE 14.5 ESE 0.0 497.4
08:45 33.1 32.7 1021.7 7.0 ESE 13.4 ESE 0.0 510.8
08:50 33.2 32.2 1021.8 7.7 E 14.1 ESE 0.0 519.9
08:55 33.3 31.5 1021.8 4.9 E 9.5 ESE 0.0 529.2
09:00 33.4 32.1 1021.8 5.3 E 13.8 E 0.0 539.4
09:05 33.7 31.9 1021.9 6.0 E 10.2 E 0.0 551.3
09:10 33.4 32.3 1021.9 4.6 ENE 15.9 E 0.0 560.7
09:15 33.7 32.3 1021.9 6.8 ESE 15.9 E 0.0 572.0
09:20 33.9 32.2 1022.0 2.8 E 8.8 ENE 0.0 582.8
09:25 34.1 32.1 1021.9 3.1 ENE 9.2 ESE 0.0 593.6
09:30 34.2 32.1 1021.9 8.7 ESE 15.9 ESE 0.0 604.4
09:35 34.2 32.1 1022.0 3.3 SSE 7.1 SSE 0.0 613.8
09:40 34.6 31.5 1021.9 5.1 ESE 13.1 SE 0.0 623.3
09:45 34.4 31.6 1021.9 6.6 SE 19.1 SE 0.0 632.8
09:50 34.5 31.8 1021.9 5.5 ESE 12.4 E 0.0 641.5
09:55 34.5 31.6 1022.0 7.0 E 14.8 E 0.0 650.1
10:00 34.7 31.1 1022.0 7.4 ESE 19.8 ESE 0.0 659.3
10:05 34.6 31.1 1022.0 6.7 SE 15.5 ESE 0.0 667.1
10:10 34.7 31.0 1022.0 7.0 E 15.2 ESE 0.0 674.8
10:15 34.9 30.6 1021.9 7.9 ESE 17.3 SE 0.0 681.3
10:20 34.7 30.6 1021.9 9.1 SSE 15.5 S 0.0 687.9
10:25 34.6 30.5 1021.9 9.3 S 14.5 S 0.0 694.8
10:30 34.6 31.1 1021.9 9.9 S 17.3 S 0.0 700.8
10:35 34.6 30.9 1021.8 8.9 SSE 16.2 S 0.0 706.4
10:40 34.5 30.8 1021.8 10.4 SSE 17.6 SE 0.0 710.9
10:45 34.6 30.9 1021.8 10.6 SSE 20.1 SE 0.0 716.6
10:50 34.6 30.7 1021.8 9.2 SSE 15.9 ESE 0.0 721.4
10:55 34.9 30.5 1021.8 10.1 SSE 18.0 SSE 0.0 725.5
11:00 34.8 30.6 1021.8 9.5 SE 18.0 SE 0.0 729.3
11:05 34.7 30.6 1021.7 9.1 SSE 16.9 SE 0.0 732.4
11:10 34.7 30.4 1021.7 11.7 SE 21.5 S 0.0 734.2
11:15 34.7 30.6 1021.8 10.3 SE 18.4 SE 0.0 736.7
11:20 34.7 30.6 1021.8 5.7 S 13.8 SSW 0.0 738.9
11:25 35.0 30.4 1021.8 10.7 SE 19.8 SSE 0.0 740.7
11:30 34.9 30.6 1021.9 8.1 SE 14.5 SE 0.0 741.9
11:35 35.0 30.3 1021.9 9.8 ESE 15.5 ESE 0.0 742.9
11:40 34.7 31.0 1021.8 10.7 SE 19.4 SE 0.0 743.3
11:45 34.5 31.5 1021.9 10.4 SSE 23.6 SE 0.0 743.0
11:50 34.7 31.4 1021.9 10.0 SE 18.0 SE 0.0 743.4
11:55 34.7 31.6 1021.8 10.8 SE 16.2 ESE 0.0 742.4
12:00 34.4 32.2 1021.9 9.5 SSE 17.3 SSE 0.0 741.0
12:05 34.3 32.7 1021.8 9.6 S 20.5 S 0.0 740.9
12:10 34.2 32.5 1021.8 10.8 SSE 16.2 SSE 0.0 739.0
12:15 34.1 32.2 1021.8 8.3 S 16.9 SE 0.0 737.5
12:20 34.1 31.5 1021.8 11.2 SSE 21.9 SSE 0.0 735.8
12:25 34.2 31.7 1021.8 8.4 S 17.6 S 0.0 733.2
12:30 34.4 31.6 1021.7 8.3 SSW 15.9 SSE 0.0 731.4
12:35 34.3 32.0 1021.7 8.1 SW 16.6 SSW 0.0 728.0
12:40 34.3 31.5 1021.7 11.2 S 17.6 SSW 0.0 723.9
12:45 34.3 31.6 1021.7 7.9 SSW 13.8 S 0.0 720.0
12:50 34.1 31.6 1021.6 7.7 S 15.2 S 0.0 716.1
12:55 34.2 32.0 1021.5 11.5 SE 19.4 SE 0.0 702.6
13:00 34.4 31.9 1021.5 9.1 SSE 17.3 SSE 0.0 668.3
13:05 34.4 32.1 1021.6 8.3 S 20.5 SSE 0.0 699.9
13:10 34.5 32.0 1021.6 9.1 SSE 15.2 SSE 0.0 692.7
13:15 34.5 32.2 1021.5 10.1 SE 17.6 S 0.0 686.9
13:20 34.5 32.1 1021.5 10.0 SSE 17.6 SSE 0.0 681.2
13:25 34.3 32.4 1021.6 9.6 SE 22.9 SE 0.0 674.4
13:30 34.3 32.2 1021.5 10.3 S 22.6 SSE 0.0 666.4
13:35 34.2 32.5 1021.5 9.7 SSE 18.4 SSE 0.0 656.4
13:40 33.7 33.3 1021.4 9.8 SSE 21.2 SSE 0.0 649.3
13:45 33.9 33.1 1021.4 10.3 SE 20.1 ESE 0.0 636.6
13:50 33.8 33.3 1021.4 10.2 SE 16.6 SE 0.0 623.9
13:55 33.8 33.6 1021.3 10.1 SSE 19.4 SSE 0.0 617.6
14:00 34.0 33.5 1021.4 8.0 SSW 18.4 SSW 0.0 611.1
14:05 33.9 33.6 1021.4 9.0 SSW 16.9 SSW 0.0 601.8
14:10 33.6 34.0 1021.4 9.4 SSW 21.5 SSE 0.0 591.8
14:15 33.4 34.5 1021.4 9.1 S 16.2 SSE 0.0 581.2
14:20 33.3 35.1 1021.4 11.3 SSE 17.6 SE 0.0 570.5
14:25 33.4 34.9 1021.3 10.2 SE 16.2 SE 0.0 556.1
14:30 33.3 35.1 1021.3 10.3 SE 16.9 SE 0.0 547.3
14:35 33.2 35.1 1021.4 8.7 SSE 15.2 SSW 0.0 538.7
14:40 33.2 35.4 1021.2 11.4 SE 17.6 SE 0.0 528.2
14:45 33.0 35.9 1021.2 10.9 SSE 20.5 ESE 0.0 515.8
14:50 32.7 36.4 1021.2 9.7 SSE 18.7 S 0.0 502.5
14:55 32.7 37.0 1021.2 10.3 SSE 16.6 SE 0.0 491.3
15:00 32.7 37.2 1021.2 10.1 SSE 19.1 S 0.0 472.1
15:05 32.9 36.7 1021.2 7.5 SSE 15.2 SE 0.0 458.2
15:10 32.6 37.1 1021.1 10.7 SSE 20.8 SSE 0.0 452.2
15:15 32.6 36.9 1021.1 9.7 SSE 16.6 SE 0.0 433.5
15:20 32.7 37.0 1021.1 7.1 SSE 11.6 SE 0.0 423.5
15:25 32.4 38.0 1021.0 8.6 SSW 16.9 SSW 0.0 411.6
15:30 32.3 38.6 1021.0 6.0 S 12.4 SSE 0.0 400.4
15:35 32.2 38.8 1021.0 7.1 S 12.0 S 0.0 387.4
15:40 32.2 39.1 1021.0 9.3 SE 15.5 SE 0.0 373.1
15:45 31.9 39.3 1021.0 8.1 SSE 13.1 SSE 0.0 356.5
15:50 31.7 39.9 1021.0 7.5 SSE 12.7 SSE 0.0 342.4
15:55 31.7 39.6 1021.0 7.6 SSE 12.4 SSE 0.0 330.6
16:00 31.6 39.5 1021.0 7.1 SE 12.0 SE 0.0 316.1
16:05 31.6 39.7 1021.0 7.6 SSE 17.3 SE 0.0 300.2
16:10 31.5 39.7 1021.0 7.1 SE 13.4 SE 0.0 283.6
16:15 31.2 40.3 1021.0 7.5 SSE 13.8 S 0.0 267.1
16:20 31.2 40.6 1021.0 7.3 SSE 12.0 SE 0.0 249.1
16:25 31.1 41.0 1021.0 9.0 SE 13.8 SE 0.0 218.5
16:30 30.9 41.3 1021.0 9.4 SE 14.8 SE 0.0 223.6
16:35 30.8 42.4 1021.0 7.7 SSE 14.1 SSW 0.0 207.7
16:40 30.7 42.5 1021.0 8.1 SE 13.8 SSE 0.0 193.5
16:45 30.6 42.3 1021.0 6.8 SE 10.9 SSE 0.0 180.5
16:50 30.5 41.2 1021.0 8.3 SE 15.5 SE 0.0 167.1
16:55 30.4 41.8 1021.1 6.4 SSE 10.9 SE 0.0 153.1
17:00 30.4 42.2 1021.1 5.9 SE 9.5 SSE 0.0 141.1
17:05 30.2 42.5 1021.2 6.5 SSE 12.0 SSE 0.0 128.9
17:10 30.0 42.3 1021.2 5.6 SE 9.9 SSE 0.0 115.7
17:15 29.8 42.8 1021.2 4.0 SSE 8.8 SE 0.0 86.6
17:20 29.6 43.1 1021.2 4.7 SE 8.8 SE 0.0 51.2
17:25 29.5 43.9 1021.2 4.2 SSE 7.8 SE 0.0 46.8
17:30 29.3 44.5 1021.2 3.0 SE 4.2 SSE 0.0 42.6
17:35 29.1 44.5 1021.2 4.5 SE 7.8 ESE 0.0 37.2
17:40 28.9 44.2 1021.1 2.8 SSE 5.6 SSE 0.0 30.7
17:45 28.7 44.8 1021.2 0.8 SSE 4.6 S 0.0 24.6
17:50 28.5 45.3 1021.2 0.4 SSW 2.5 SSW 0.0 18.9
17:55 28.2 46.4 1021.2 0.0 NNE 0.0 S 0.0 13.5
18:00 27.9 47.2 1021.2 0.7 W 2.1 W 0.0 9.7
18:05 27.4 48.3 1021.2 2.1 W 2.8 W 0.0 6.9
18:10 27.1 49.7 1021.2 0.9 NW 2.8 WNW 0.0 4.9
18:15 26.9 50.2 1021.2 2.6 NNW 4.2 NNW 0.0 2.7
18:20 26.6 51.0 1021.2 3.4 NW 4.2 NW 0.0 1.3
18:25 26.4 51.9 1021.3 2.2 NW 3.9 NW 0.0 0.7
18:30 26.1 53.1 1021.3 0.4 N 4.9 NNW 0.0 0.3
18:35 26.0 54.4 1021.3 3.8 N 7.4 NNW 0.0 0.2
18:40 25.8 53.7 1021.3 4.2 NNW 6.0 NNW 0.0 0.1
18:45 25.5 54.4 1021.3 4.3 NNW 5.3 NNW 0.0 0.1
18:50 25.2 55.1 1021.3 3.7 NNW 4.9 NNW 0.0 0.1
18:55 25.0 56.2 1021.3 3.9 NNW 5.6 N 0.0 0.1
Máxima 35.0 67.7 1022.0 11.7 SE 23.6 SE 0.0 743.4
Mínima 20 30.3 1019.6
Total 0.0